User: anonymous   Login
Location: Unspecified
(0.0000°N, 0.0000°E)
Time: 23:59:31
(UTC+00:00)
Language:

Envisat - Orbit

View from above orbital plane
View from above orbital plane
View from above satellite
View from above satellite

Ground track
Ground track

The orbit data is extracted from the following two-line orbital elements,

1 27386U 02009A   18050.48617869  .00000003  00000-0  14753-4 0  9997
2 27386  98.2002  90.0020 0001304  83.5854 276.5482 14.37915704836610
Epoch (UTC): 19 February 2018 11:40:05
Eccentricity: 0.0001304
inclination: 98.2002°
perigee height: 764 km
apogee height: 766 km
right ascension of ascending node: 90.0020°
argument of perigee: 83.5854°
revolutions per day: 14.37915704
mean anomaly at epoch: 276.5482°
orbit number at epoch: 83661

The dashed part of the orbit path shows where the satellite is in the earth's shadow,  

DLR